Time,TemperatureF,DewpointF,PressureIn,WindDirection,WindDirectionDegrees,WindSpeedMPH,WindSpeedGustMPH,Humidity,HourlyPrecipIn,Conditions,Clouds,dailyrainin,SoftwareType,DateUTC
2013-05-29 00:01:00,71.2,65.1,30.15,North,360,4.0,16.0,81,0.00,,---,0.00,VWS V14.01,2013-05-29 04:01:00,
2013-05-29 00:06:00,71.1,65.0,30.15,North,360,7.0,12.0,81,0.00,,---,0.00,VWS V14.01,2013-05-29 04:06:00,
2013-05-29 00:11:00,71.1,65.0,30.15,North,360,3.0,13.0,81,0.00,,---,0.00,VWS V14.01,2013-05-29 04:11:00,
2013-05-29 00:16:00,71.1,65.0,30.16,North,360,9.0,14.0,81,0.00,,---,0.00,VWS V14.01,2013-05-29 04:16:00,
2013-05-29 00:22:00,71.1,65.0,30.16,North,360,7.0,14.0,81,0.00,,---,0.00,VWS V14.01,2013-05-29 04:22:00,
2013-05-29 00:27:00,71.1,64.6,30.16,North,360,11.0,14.0,80,0.00,,---,0.00,VWS V14.01,2013-05-29 04:27:00,
2013-05-29 00:32:00,71.0,64.5,30.16,North,360,7.0,14.0,80,0.00,,---,0.00,VWS V14.01,2013-05-29 04:32:00,
2013-05-29 00:37:00,71.0,64.5,30.16,North,360,9.0,16.0,80,0.00,,---,0.00,VWS V14.01,2013-05-29 04:37:00,
2013-05-29 00:42:00,70.9,64.4,30.16,North,360,10.0,16.0,80,0.00,,---,0.00,VWS V14.01,2013-05-29 04:42:00,
2013-05-29 00:47:00,70.8,64.3,30.16,North,360,9.0,16.0,80,0.00,,---,0.00,VWS V14.01,2013-05-29 04:47:00,
2013-05-29 00:52:00,70.8,64.3,30.16,North,360,12.0,16.0,80,0.00,,---,0.00,VWS V14.01,2013-05-29 04:52:00,
2013-05-29 00:57:00,70.7,64.2,30.16,North,360,9.0,16.0,80,0.00,,---,0.00,VWS V14.01,2013-05-29 04:57:00,
2013-05-29 01:02:00,70.6,64.1,30.16,North,360,11.0,18.0,80,0.00,,---,0.00,VWS V14.01,2013-05-29 05:02:00,
2013-05-29 01:07:00,70.5,64.0,30.16,North,360,7.0,15.0,80,0.00,,---,0.00,VWS V14.01,2013-05-29 05:07:00,
2013-05-29 01:12:00,70.3,63.8,30.16,North,360,10.0,16.0,80,0.00,,---,0.00,VWS V14.01,2013-05-29 05:12:00,
2013-05-29 01:17:00,70.2,63.8,30.16,North,360,4.0,16.0,80,0.00,,---,0.00,VWS V14.01,2013-05-29 05:17:00,
2013-05-29 01:22:00,70.1,63.7,30.15,North,360,4.0,18.0,80,0.00,,---,0.00,VWS V14.01,2013-05-29 05:22:00,
2013-05-29 01:27:00,69.9,63.5,30.15,North,360,6.0,18.0,80,0.00,,---,0.00,VWS V14.01,2013-05-29 05:27:00,
2013-05-29 01:32:00,69.8,63.7,30.15,North,360,10.0,18.0,81,0.00,,---,0.00,VWS V14.01,2013-05-29 05:32:00,
2013-05-29 01:38:00,69.7,63.6,30.15,North,360,11.0,18.0,81,0.00,,---,0.00,VWS V14.01,2013-05-29 05:38:00,
2013-05-29 01:43:00,69.5,63.4,30.15,North,360,10.0,18.0,81,0.00,,---,0.00,VWS V14.01,2013-05-29 05:43:00,
2013-05-29 01:48:00,69.4,63.3,30.15,North,360,9.0,18.0,81,0.00,,---,0.00,VWS V14.01,2013-05-29 05:48:00,
2013-05-29 01:53:00,69.4,63.0,30.15,North,360,8.0,18.0,80,0.00,,---,0.00,VWS V14.01,2013-05-29 05:53:00,
2013-05-29 01:58:00,69.2,62.8,30.15,North,360,7.0,18.0,80,0.00,,---,0.00,VWS V14.01,2013-05-29 05:58:00,
2013-05-29 02:03:00,69.1,63.0,30.15,North,360,10.0,10.0,81,0.00,,---,0.00,VWS V14.01,2013-05-29 06:03:00,
2013-05-29 02:08:00,69.0,62.9,30.15,North,360,7.0,12.0,81,0.00,,---,0.00,VWS V14.01,2013-05-29 06:08:00,
2013-05-29 02:13:00,68.9,62.8,30.15,North,360,6.0,12.0,81,0.00,,---,0.00,VWS V14.01,2013-05-29 06:13:00,
2013-05-29 02:18:00,68.8,62.7,30.15,North,360,7.0,12.0,81,0.00,,---,0.00,VWS V14.01,2013-05-29 06:18:00,
2013-05-29 02:23:00,68.6,62.5,30.15,North,360,6.0,12.0,81,0.00,,---,0.00,VWS V14.01,2013-05-29 06:23:00,
2013-05-29 02:28:00,68.5,62.5,30.15,North,360,5.0,12.0,81,0.00,,---,0.00,VWS V14.01,2013-05-29 06:28:00,
2013-05-29 02:33:00,68.3,62.2,30.15,North,360,6.0,12.0,81,0.00,,---,0.00,VWS V14.01,2013-05-29 06:33:00,
2013-05-29 02:38:00,68.3,62.2,30.15,North,360,9.0,12.0,81,0.00,,---,0.00,VWS V14.01,2013-05-29 06:38:00,
2013-05-29 02:43:00,68.1,62.1,30.15,North,360,5.0,12.0,81,0.00,,---,0.00,VWS V14.01,2013-05-29 06:43:00,
2013-05-29 02:48:00,67.9,61.9,30.15,North,360,8.0,12.0,81,0.00,,---,0.00,VWS V14.01,2013-05-29 06:48:00,
2013-05-29 02:53:00,67.8,61.8,30.15,North,360,9.0,12.0,81,0.00,,---,0.00,VWS V14.01,2013-05-29 06:53:00,
2013-05-29 02:58:00,67.7,61.7,30.15,North,360,6.0,13.0,81,0.00,,---,0.00,VWS V14.01,2013-05-29 06:58:00,
2013-05-29 03:04:00,67.6,61.6,30.15,North,360,7.0,9.0,81,0.00,,---,0.00,VWS V14.01,2013-05-29 07:04:00,
2013-05-29 03:09:00,67.5,61.5,30.15,North,360,5.0,10.0,81,0.00,,---,0.00,VWS V14.01,2013-05-29 07:09:00,
2013-05-29 03:14:00,67.4,61.4,30.15,North,360,6.0,11.0,81,0.00,,---,0.00,VWS V14.01,2013-05-29 07:14:00,
2013-05-29 03:19:00,67.3,61.3,30.15,North,360,6.0,11.0,81,0.00,,---,0.00,VWS V14.01,2013-05-29 07:19:00,
2013-05-29 03:24:00,67.3,61.3,30.16,North,360,5.0,11.0,81,0.00,,---,0.00,VWS V14.01,2013-05-29 07:24:00,
2013-05-29 03:29:00,67.2,61.2,30.16,North,360,6.0,11.0,81,0.00,,---,0.00,VWS V14.01,2013-05-29 07:29:00,
2013-05-29 03:34:00,67.0,61.0,30.16,North,360,5.0,11.0,81,0.00,,---,0.00,VWS V14.01,2013-05-29 07:34:00,
2013-05-29 03:39:00,66.9,60.9,30.16,North,360,6.0,11.0,81,0.00,,---,0.00,VWS V14.01,2013-05-29 07:39:00,
2013-05-29 03:44:00,66.7,61.0,30.16,North,360,6.0,11.0,82,0.00,,---,0.00,VWS V14.01,2013-05-29 07:44:00,
2013-05-29 03:49:00,66.6,60.9,30.16,North,360,10.0,11.0,82,0.00,,---,0.00,VWS V14.01,2013-05-29 07:49:00,
2013-05-29 03:54:00,66.5,60.8,30.17,North,360,4.0,11.0,82,0.00,,---,0.00,VWS V14.01,2013-05-29 07:54:00,
2013-05-29 04:00:00,66.4,60.7,30.17,North,360,4.0,11.0,82,0.00,,---,0.00,VWS V14.01,2013-05-29 08:00:00,
2013-05-29 04:05:00,66.3,60.7,30.17,North,360,4.0,5.0,82,0.00,,---,0.00,VWS V14.01,2013-05-29 08:05:00,
2013-05-29 04:10:00,66.2,60.9,30.18,North,360,4.0,6.0,83,0.00,,---,0.00,VWS V14.01,2013-05-29 08:10:00,
2013-05-29 04:15:00,66.0,60.7,30.18,North,360,2.0,6.0,83,0.00,,---,0.00,VWS V14.01,2013-05-29 08:15:00,
2013-05-29 04:20:00,65.9,60.6,30.18,North,360,3.0,6.0,83,0.00,,---,0.00,VWS V14.01,2013-05-29 08:20:00,
2013-05-29 04:25:00,65.8,60.5,30.18,North,360,0.0,6.0,83,0.00,,---,0.00,VWS V14.01,2013-05-29 08:25:00,
2013-05-29 04:30:00,65.6,60.6,30.17,North,360,0.0,6.0,84,0.00,,---,0.00,VWS V14.01,2013-05-29 08:30:00,
2013-05-29 04:35:00,65.5,60.5,30.18,North,360,0.0,6.0,84,0.00,,---,0.00,VWS V14.01,2013-05-29 08:35:00,
2013-05-29 04:40:00,65.4,60.5,30.18,North,360,3.0,6.0,84,0.00,,---,0.00,VWS V14.01,2013-05-29 08:40:00,
2013-05-29 04:45:00,65.3,60.3,30.18,North,360,0.0,6.0,84,0.00,,---,0.00,VWS V14.01,2013-05-29 08:45:00,
2013-05-29 04:50:00,65.2,60.6,30.18,North,360,0.0,6.0,85,0.00,,---,0.00,VWS V14.01,2013-05-29 08:50:00,
2013-05-29 04:55:00,65.1,60.5,30.19,North,360,0.0,6.0,85,0.00,,---,0.00,VWS V14.01,2013-05-29 08:55:00,
2013-05-29 05:00:00,65.0,60.4,30.18,North,360,0.0,6.0,85,0.00,,---,0.00,VWS V14.01,2013-05-29 09:00:00,
2013-05-29 05:05:00,65.0,60.4,30.19,North,360,0.0,0.0,85,0.00,,---,0.00,VWS V14.01,2013-05-29 09:05:00,
2013-05-29 05:10:00,64.9,60.3,30.19,North,360,0.0,0.0,85,0.00,,---,0.00,VWS V14.01,2013-05-29 09:10:00,
2013-05-29 05:16:00,64.8,60.2,30.19,North,360,0.0,0.0,85,0.00,,---,0.00,VWS V14.01,2013-05-29 09:16:00,
2013-05-29 05:21:00,64.8,60.5,30.19,North,360,0.0,0.0,86,0.00,,---,0.00,VWS V14.01,2013-05-29 09:21:00,
2013-05-29 05:26:00,64.7,60.4,30.19,North,360,0.0,2.0,86,0.00,,---,0.00,VWS V14.01,2013-05-29 09:26:00,
2013-05-29 05:31:00,64.6,60.3,30.19,North,360,0.0,2.0,86,0.00,,---,0.00,VWS V14.01,2013-05-29 09:31:00,
2013-05-29 05:36:00,64.6,60.3,30.19,North,360,0.0,2.0,86,0.00,,---,0.00,VWS V14.01,2013-05-29 09:36:00,
2013-05-29 05:41:00,64.6,60.3,30.19,North,360,4.0,4.0,86,0.00,,---,0.00,VWS V14.01,2013-05-29 09:41:00,
2013-05-29 05:46:00,64.5,60.2,30.19,North,360,3.0,4.0,86,0.00,,---,0.00,VWS V14.01,2013-05-29 09:46:00,
2013-05-29 05:51:00,64.3,60.0,30.19,North,360,0.0,4.0,86,0.00,,---,0.00,VWS V14.01,2013-05-29 09:51:00,
2013-05-29 05:56:00,64.0,59.7,30.19,North,360,0.0,4.0,86,0.00,,---,0.00,VWS V14.01,2013-05-29 09:56:00,
2013-05-29 06:01:00,63.8,59.9,30.19,North,360,2.0,4.0,87,0.00,,---,0.00,VWS V14.01,2013-05-29 10:01:00,
2013-05-29 06:06:00,63.7,59.8,30.19,North,360,4.0,5.0,87,0.00,,---,0.00,VWS V14.01,2013-05-29 10:06:00,
2013-05-29 06:11:00,63.7,60.1,30.19,North,360,3.0,5.0,88,0.00,,---,0.00,VWS V14.01,2013-05-29 10:11:00,
2013-05-29 06:17:00,63.9,60.0,30.20,North,360,1.0,5.0,87,0.00,,---,0.00,VWS V14.01,2013-05-29 10:17:00,
2013-05-29 06:22:00,63.9,60.0,30.20,North,360,2.0,5.0,87,0.00,,---,0.00,VWS V14.01,2013-05-29 10:22:00,
2013-05-29 06:27:00,64.0,60.1,30.20,North,360,3.0,5.0,87,0.00,,---,0.00,VWS V14.01,2013-05-29 10:27:00,
2013-05-29 06:32:00,64.0,60.1,30.20,North,360,3.0,5.0,87,0.00,,---,0.00,VWS V14.01,2013-05-29 10:32:00,
2013-05-29 06:37:00,64.1,60.2,30.20,North,360,3.0,5.0,87,0.00,,---,0.00,VWS V14.01,2013-05-29 10:37:00,
2013-05-29 06:42:00,64.3,60.3,30.20,North,360,3.0,5.0,87,0.00,,---,0.00,VWS V14.01,2013-05-29 10:42:00,
2013-05-29 06:47:00,64.3,60.3,30.20,North,360,5.0,6.0,87,0.00,,---,0.00,VWS V14.01,2013-05-29 10:47:00,
2013-05-29 06:52:00,64.1,60.2,30.20,North,360,3.0,6.0,87,0.00,,---,0.00,VWS V14.01,2013-05-29 10:52:00,
2013-05-29 06:57:00,64.0,60.1,30.20,North,360,3.0,6.0,87,0.00,,---,0.00,VWS V14.01,2013-05-29 10:57:00,
2013-05-29 07:02:00,64.1,60.5,30.20,North,360,2.0,6.0,88,0.00,,---,0.00,VWS V14.01,2013-05-29 11:02:00,
2013-05-29 07:07:00,64.2,60.6,30.20,North,360,4.0,7.0,88,0.00,,---,0.00,VWS V14.01,2013-05-29 11:07:00,
2013-05-29 07:13:00,64.5,60.5,30.20,North,360,1.0,7.0,87,0.00,,---,0.00,VWS V14.01,2013-05-29 11:13:00,
2013-05-29 07:18:00,64.7,60.8,30.20,North,360,1.0,7.0,87,0.00,,---,0.00,VWS V14.01,2013-05-29 11:18:00,
2013-05-29 07:23:00,65.0,61.0,30.20,North,360,1.0,7.0,87,0.00,,---,0.00,VWS V14.01,2013-05-29 11:23:00,
2013-05-29 07:28:00,65.3,61.0,30.20,North,360,1.0,7.0,86,0.00,,---,0.00,VWS V14.01,2013-05-29 11:28:00,
2013-05-29 07:33:00,65.5,61.2,30.20,North,360,1.0,7.0,86,0.00,,---,0.00,VWS V14.01,2013-05-29 11:33:00,
2013-05-29 07:38:00,65.7,61.4,30.20,North,360,2.0,7.0,86,0.00,,---,0.00,VWS V14.01,2013-05-29 11:38:00,
2013-05-29 07:43:00,65.9,61.6,30.20,North,360,4.0,7.0,86,0.00,,---,0.00,VWS V14.01,2013-05-29 11:43:00,
2013-05-29 07:48:00,66.1,61.5,30.21,North,360,5.0,7.0,85,0.00,,---,0.00,VWS V14.01,2013-05-29 11:48:00,
2013-05-29 07:53:00,66.3,61.7,30.20,North,360,3.0,7.0,85,0.00,,---,0.00,VWS V14.01,2013-05-29 11:53:00,
2013-05-29 07:58:00,66.7,62.0,30.20,North,360,1.0,9.0,85,0.00,,---,0.00,VWS V14.01,2013-05-29 11:58:00,
2013-05-29 08:04:00,67.0,62.0,30.20,North,360,6.0,6.0,84,0.00,,---,0.00,VWS V14.01,2013-05-29 12:04:00,
2013-05-29 08:09:00,67.2,62.2,30.21,North,360,1.0,10.0,84,0.00,,---,0.00,VWS V14.01,2013-05-29 12:09:00,
2013-05-29 08:14:00,67.3,62.0,30.21,North,360,1.0,12.0,83,0.00,,---,0.00,VWS V14.01,2013-05-29 12:14:00,
2013-05-29 08:19:00,67.5,62.2,30.21,North,360,7.0,12.0,83,0.00,,---,0.00,VWS V14.01,2013-05-29 12:19:00,
2013-05-29 08:24:00,67.7,62.4,30.21,North,360,9.0,12.0,83,0.00,,---,0.00,VWS V14.01,2013-05-29 12:24:00,
2013-05-29 08:29:00,68.0,62.3,30.21,North,360,7.0,14.0,82,0.00,,---,0.00,VWS V14.01,2013-05-29 12:29:00,
2013-05-29 08:34:00,68.1,62.4,30.21,North,360,10.0,14.0,82,0.00,,---,0.00,VWS V14.01,2013-05-29 12:34:00,
2013-05-29 08:39:00,68.3,62.6,30.21,North,360,5.0,15.0,82,0.00,,---,0.00,VWS V14.01,2013-05-29 12:39:00,
2013-05-29 08:44:00,68.7,62.6,30.21,North,360,7.0,15.0,81,0.00,,---,0.00,VWS V14.01,2013-05-29 12:44:00,
2013-05-29 08:49:00,69.0,63.3,30.21,North,360,8.0,15.0,82,0.00,,---,0.00,VWS V14.01,2013-05-29 12:49:00,
2013-05-29 08:54:00,69.1,63.0,30.21,North,360,6.0,15.0,81,0.00,,---,0.00,VWS V14.01,2013-05-29 12:54:00,
2013-05-29 08:59:00,69.4,63.3,30.21,North,360,12.0,15.0,81,0.00,,---,0.00,VWS V14.01,2013-05-29 12:59:00,
2013-05-29 09:04:00,69.5,63.4,30.21,North,360,7.0,12.0,81,0.00,,---,0.00,VWS V14.01,2013-05-29 13:04:00,
2013-05-29 09:09:00,69.6,63.5,30.22,North,360,6.0,12.0,81,0.00,,---,0.00,VWS V14.01,2013-05-29 13:09:00,
2013-05-29 09:14:00,70.2,63.8,30.22,North,360,9.0,12.0,80,0.00,,---,0.00,VWS V14.01,2013-05-29 13:14:00,
2013-05-29 09:19:00,70.4,63.6,30.22,North,360,7.0,13.0,79,0.00,,---,0.00,VWS V14.01,2013-05-29 13:19:00,
2013-05-29 09:24:00,70.7,63.9,30.23,North,360,3.0,13.0,79,0.00,,---,0.00,VWS V14.01,2013-05-29 13:24:00,
2013-05-29 09:29:00,71.0,64.2,30.22,North,360,11.0,13.0,79,0.00,,---,0.00,VWS V14.01,2013-05-29 13:29:00,
2013-05-29 09:34:00,71.2,64.0,30.22,North,360,3.0,14.0,78,0.00,,---,0.00,VWS V14.01,2013-05-29 13:34:00,
2013-05-29 09:39:00,71.5,63.9,30.22,North,360,4.0,14.0,77,0.00,,---,0.00,VWS V14.01,2013-05-29 13:39:00,
2013-05-29 09:44:00,71.6,63.6,30.22,North,360,9.0,14.0,76,0.00,,---,0.00,VWS V14.01,2013-05-29 13:44:00,
2013-05-29 09:50:00,72.0,64.4,30.23,North,360,10.0,14.0,77,0.00,,---,0.00,VWS V14.01,2013-05-29 13:50:00,
2013-05-29 09:55:00,72.2,64.2,30.22,North,360,5.0,15.0,76,0.00,,---,0.00,VWS V14.01,2013-05-29 13:55:00,
2013-05-29 10:00:00,72.6,64.2,30.22,North,360,11.0,15.0,75,0.00,,---,0.00,VWS V14.01,2013-05-29 14:00:00,
2013-05-29 10:05:00,72.6,63.8,30.22,North,360,8.0,13.0,74,0.00,,---,0.00,VWS V14.01,2013-05-29 14:05:00,
2013-05-29 10:10:00,72.8,64.8,30.22,North,360,12.0,14.0,76,0.00,,---,0.00,VWS V14.01,2013-05-29 14:10:00,
2013-05-29 10:15:00,72.7,63.9,30.23,North,360,12.0,14.0,74,0.00,,---,0.00,VWS V14.01,2013-05-29 14:15:00,
2013-05-29 10:20:00,72.7,63.9,30.23,North,360,7.0,14.0,74,0.00,,---,0.00,VWS V14.01,2013-05-29 14:20:00,
2013-05-29 10:25:00,72.6,63.8,30.23,North,360,5.0,14.0,74,0.00,,---,0.00,VWS V14.01,2013-05-29 14:25:00,
2013-05-29 10:30:00,73.1,64.7,30.23,North,360,11.0,14.0,75,0.00,,---,0.00,VWS V14.01,2013-05-29 14:30:00,
2013-05-29 10:35:00,73.3,64.5,30.22,North,360,9.0,14.0,74,0.00,,---,0.00,VWS V14.01,2013-05-29 14:35:00,
2013-05-29 10:40:00,73.8,64.6,30.22,North,360,6.0,14.0,73,0.00,,---,0.00,VWS V14.01,2013-05-29 14:40:00,
2013-05-29 10:46:00,74.0,64.8,30.23,North,360,3.0,14.0,73,0.00,,---,0.00,VWS V14.01,2013-05-29 14:46:00,
2013-05-29 10:51:00,74.2,65.0,30.22,North,360,3.0,14.0,73,0.00,,---,0.00,VWS V14.01,2013-05-29 14:51:00,
2013-05-29 10:56:00,74.7,64.7,30.22,North,360,6.0,14.0,71,0.00,,---,0.00,VWS V14.01,2013-05-29 14:56:00,
2013-05-29 11:01:00,75.0,64.6,30.22,North,360,4.0,14.0,70,0.00,,---,0.00,VWS V14.01,2013-05-29 15:01:00,
2013-05-29 11:06:00,75.1,64.7,30.23,North,360,7.0,13.0,70,0.00,,---,0.00,VWS V14.01,2013-05-29 15:06:00,
2013-05-29 11:11:00,75.0,64.6,30.23,North,360,6.0,13.0,70,0.00,,---,0.00,VWS V14.01,2013-05-29 15:11:00,
2013-05-29 11:16:00,75.1,64.7,30.23,North,360,5.0,13.0,70,0.00,,---,0.00,VWS V14.01,2013-05-29 15:16:00,
2013-05-29 11:21:00,75.6,64.7,30.23,North,360,2.0,13.0,69,0.00,,---,0.00,VWS V14.01,2013-05-29 15:21:00,
2013-05-29 11:26:00,75.9,65.4,30.23,North,360,5.0,13.0,70,0.00,,---,0.00,VWS V14.01,2013-05-29 15:26:00,
2013-05-29 11:31:00,76.1,65.2,30.23,North,360,3.0,14.0,69,0.00,,---,0.00,VWS V14.01,2013-05-29 15:31:00,
2013-05-29 11:36:00,76.4,65.1,30.22,North,360,4.0,14.0,68,0.00,,---,0.00,VWS V14.01,2013-05-29 15:36:00,
2013-05-29 11:41:00,76.8,65.4,30.22,North,360,4.0,14.0,68,0.00,,---,0.00,VWS V14.01,2013-05-29 15:41:00,
2013-05-29 11:46:00,76.9,65.5,30.22,North,360,10.0,14.0,68,0.00,,---,0.00,VWS V14.01,2013-05-29 15:46:00,
2013-05-29 11:51:00,77.2,65.8,30.22,North,360,6.0,14.0,68,0.00,,---,0.00,VWS V14.01,2013-05-29 15:51:00,
2013-05-29 11:56:00,77.4,66.0,30.22,North,360,6.0,14.0,68,0.00,,---,0.00,VWS V14.01,2013-05-29 15:56:00,
2013-05-29 12:02:00,78.0,66.6,30.22,North,360,10.0,14.0,68,0.00,,---,0.00,VWS V14.01,2013-05-29 16:02:00,
2013-05-29 12:07:00,78.1,65.8,30.22,North,360,6.0,15.0,66,0.00,,---,0.00,VWS V14.01,2013-05-29 16:07:00,
2013-05-29 12:12:00,78.2,66.4,30.22,North,360,10.0,15.0,67,0.00,,---,0.00,VWS V14.01,2013-05-29 16:12:00,
2013-05-29 12:17:00,78.1,65.4,30.22,North,360,3.0,15.0,65,0.00,,---,0.00,VWS V14.01,2013-05-29 16:17:00,
2013-05-29 12:22:00,78.3,65.6,30.22,North,360,5.0,15.0,65,0.00,,---,0.00,VWS V14.01,2013-05-29 16:22:00,
2013-05-29 12:27:00,78.2,65.9,30.21,North,360,9.0,15.0,66,0.00,,---,0.00,VWS V14.01,2013-05-29 16:27:00,
2013-05-29 12:32:00,78.3,66.0,30.21,North,360,5.0,15.0,66,0.00,,---,0.00,VWS V14.01,2013-05-29 16:32:00,
2013-05-29 12:37:00,79.1,65.9,30.21,North,360,9.0,18.0,64,0.00,,---,0.00,VWS V14.01,2013-05-29 16:37:00,
2013-05-29 12:42:00,78.8,65.2,30.21,North,360,14.0,18.0,63,0.00,,---,0.00,VWS V14.01,2013-05-29 16:42:00,
2013-05-29 12:47:00,79.1,65.0,30.21,North,360,6.0,18.0,62,0.00,,---,0.00,VWS V14.01,2013-05-29 16:47:00,
2013-05-29 12:52:00,79.1,65.0,30.21,North,360,9.0,18.0,62,0.00,,---,0.00,VWS V14.01,2013-05-29 16:52:00,
2013-05-29 12:57:00,79.6,65.0,30.21,North,360,4.0,18.0,61,0.00,,---,0.00,VWS V14.01,2013-05-29 16:57:00,
2013-05-29 13:02:00,79.4,65.3,30.20,North,360,10.0,18.0,62,0.00,,---,0.00,VWS V14.01,2013-05-29 17:02:00,
2013-05-29 13:07:00,79.2,65.5,30.20,North,360,9.0,12.0,63,0.00,,---,0.00,VWS V14.01,2013-05-29 17:07:00,
2013-05-29 13:12:00,79.7,65.1,30.20,North,360,11.0,15.0,61,0.00,,---,0.00,VWS V14.01,2013-05-29 17:12:00,
2013-05-29 13:17:00,79.9,65.3,30.20,North,360,15.0,15.0,61,0.00,,---,0.00,VWS V14.01,2013-05-29 17:17:00,
2013-05-29 13:22:00,80.4,65.3,30.20,North,360,9.0,15.0,60,0.00,,---,0.00,VWS V14.01,2013-05-29 17:22:00,
2013-05-29 13:27:00,80.3,64.7,30.19,North,360,11.0,15.0,59,0.00,,---,0.00,VWS V14.01,2013-05-29 17:27:00,
2013-05-29 13:33:00,80.3,65.2,30.19,North,360,13.0,15.0,60,0.00,,---,0.00,VWS V14.01,2013-05-29 17:33:00,
2013-05-29 13:38:00,79.8,65.2,30.19,North,360,14.0,16.0,61,0.00,,---,0.00,VWS V14.01,2013-05-29 17:38:00,
2013-05-29 13:43:00,79.6,64.5,30.20,North,360,9.0,18.0,60,0.00,,---,0.00,VWS V14.01,2013-05-29 17:43:00,
2013-05-29 13:48:00,80.5,64.9,30.19,North,360,6.0,18.0,59,0.00,,---,0.00,VWS V14.01,2013-05-29 17:48:00,
2013-05-29 13:53:00,80.7,65.1,30.19,North,360,9.0,18.0,59,0.00,,---,0.00,VWS V14.01,2013-05-29 17:53:00,
2013-05-29 13:58:00,80.5,63.9,30.19,North,360,6.0,18.0,57,0.00,,---,0.00,VWS V14.01,2013-05-29 17:58:00,
2013-05-29 14:03:00,80.3,63.7,30.18,North,360,7.0,11.0,57,0.00,,---,0.00,VWS V14.01,2013-05-29 18:03:00,
2013-05-29 14:08:00,80.1,64.5,30.18,North,360,11.0,12.0,59,0.00,,---,0.00,VWS V14.01,2013-05-29 18:08:00,
2013-05-29 14:13:00,80.5,63.4,30.19,North,360,6.0,16.0,56,0.00,,---,0.00,VWS V14.01,2013-05-29 18:13:00,
2013-05-29 14:18:00,81.2,64.5,30.19,North,360,4.0,16.0,57,0.00,,---,0.00,VWS V14.01,2013-05-29 18:18:00,
2013-05-29 14:23:00,81.7,64.0,30.19,North,360,7.0,16.0,55,0.00,,---,0.00,VWS V14.01,2013-05-29 18:23:00,
2013-05-29 14:29:00,81.6,64.4,30.18,North,360,4.0,16.0,56,0.00,,---,0.00,VWS V14.01,2013-05-29 18:29:00,
2013-05-29 14:34:00,81.5,63.8,30.18,North,360,14.0,16.0,55,0.00,,---,0.00,VWS V14.01,2013-05-29 18:34:00,
2013-05-29 14:39:00,81.5,63.3,30.18,North,360,9.0,17.0,54,0.00,,---,0.00,VWS V14.01,2013-05-29 18:39:00,
2013-05-29 14:44:00,81.7,63.5,30.18,North,360,9.0,17.0,54,0.00,,---,0.00,VWS V14.01,2013-05-29 18:44:00,
2013-05-29 14:49:00,81.8,64.1,30.18,North,360,12.0,17.0,55,0.00,,---,0.00,VWS V14.01,2013-05-29 18:49:00,
2013-05-29 14:54:00,81.4,63.7,30.17,North,360,9.0,17.0,55,0.00,,---,0.00,VWS V14.01,2013-05-29 18:54:00,
2013-05-29 14:59:00,81.8,63.5,30.17,North,360,9.0,17.0,54,0.00,,---,0.00,VWS V14.01,2013-05-29 18:59:00,
2013-05-29 15:04:00,81.7,64.0,30.17,North,360,7.0,13.0,55,0.00,,---,0.00,VWS V14.01,2013-05-29 19:04:00,
2013-05-29 15:09:00,81.4,63.2,30.18,North,360,9.0,18.0,54,0.00,,---,0.00,VWS V14.01,2013-05-29 19:09:00,
2013-05-29 15:14:00,81.4,63.7,30.17,North,360,14.0,18.0,55,0.00,,---,0.00,VWS V14.01,2013-05-29 19:14:00,
2013-05-29 15:19:00,81.2,63.0,30.17,North,360,6.0,18.0,54,0.00,,---,0.00,VWS V14.01,2013-05-29 19:19:00,
2013-05-29 15:24:00,82.0,63.2,30.17,North,360,11.0,18.0,53,0.00,,---,0.00,VWS V14.01,2013-05-29 19:24:00,
2013-05-29 15:29:00,81.8,63.0,30.17,North,360,6.0,18.0,53,0.00,,---,0.00,VWS V14.01,2013-05-29 19:29:00,
2013-05-29 15:35:00,82.0,63.2,30.17,North,360,9.0,18.0,53,0.00,,---,0.00,VWS V14.01,2013-05-29 19:35:00,
2013-05-29 15:40:00,81.8,63.0,30.17,North,360,9.0,18.0,53,0.00,,---,0.00,VWS V14.01,2013-05-29 19:40:00,
2013-05-29 15:45:00,82.3,62.9,30.17,North,360,4.0,18.0,52,0.00,,---,0.00,VWS V14.01,2013-05-29 19:45:00,
2013-05-29 15:50:00,82.6,63.2,30.17,North,360,13.0,18.0,52,0.00,,---,0.00,VWS V14.01,2013-05-29 19:50:00,
2013-05-29 15:55:00,82.6,63.2,30.17,North,360,9.0,18.0,52,0.00,,---,0.00,VWS V14.01,2013-05-29 19:55:00,
2013-05-29 16:00:00,82.3,63.5,30.17,North,360,10.0,18.0,53,0.00,,---,0.00,VWS V14.01,2013-05-29 20:00:00,
2013-05-29 16:05:00,81.6,62.3,30.17,North,360,4.0,12.0,52,0.00,,---,0.00,VWS V14.01,2013-05-29 20:05:00,
2013-05-29 16:10:00,81.7,62.9,30.17,North,360,11.0,14.0,53,0.00,,---,0.00,VWS V14.01,2013-05-29 20:10:00,
2013-05-29 16:15:00,81.9,62.6,30.17,North,360,14.0,17.0,52,0.00,,---,0.00,VWS V14.01,2013-05-29 20:15:00,
2013-05-29 16:20:00,81.5,62.7,30.16,North,360,11.0,17.0,53,0.00,,---,0.00,VWS V14.01,2013-05-29 20:20:00,
2013-05-29 16:25:00,81.8,63.0,30.16,North,360,11.0,17.0,53,0.00,,---,0.00,VWS V14.01,2013-05-29 20:25:00,
2013-05-29 16:30:00,81.8,63.0,30.16,North,360,7.0,17.0,53,0.00,,---,0.00,VWS V14.01,2013-05-29 20:30:00,
2013-05-29 16:36:00,81.9,63.1,30.16,North,360,7.0,17.0,53,0.00,,---,0.00,VWS V14.01,2013-05-29 20:36:00,
2013-05-29 16:41:00,82.6,63.8,30.16,North,360,4.0,17.0,53,0.00,,---,0.00,VWS V14.01,2013-05-29 20:41:00,
2013-05-29 16:46:00,83.0,63.6,30.16,North,360,4.0,17.0,52,0.00,,---,0.00,VWS V14.01,2013-05-29 20:46:00,
2013-05-29 16:51:00,82.9,63.5,30.16,North,360,12.0,17.0,52,0.00,,---,0.00,VWS V14.01,2013-05-29 20:51:00,
2013-05-29 16:56:00,82.4,63.6,30.16,North,360,11.0,17.0,53,0.00,,---,0.00,VWS V14.01,2013-05-29 20:56:00,
2013-05-29 17:01:00,82.2,63.4,30.16,North,360,9.0,17.0,53,0.00,,---,0.00,VWS V14.01,2013-05-29 21:01:00,
2013-05-29 17:06:00,82.0,63.7,30.16,North,360,11.0,15.0,54,0.00,,---,0.00,VWS V14.01,2013-05-29 21:06:00,
2013-05-29 17:11:00,82.0,64.3,30.16,North,360,11.0,15.0,55,0.00,,---,0.00,VWS V14.01,2013-05-29 21:11:00,
2013-05-29 17:16:00,82.0,63.7,30.16,North,360,9.0,15.0,54,0.00,,---,0.00,VWS V14.01,2013-05-29 21:16:00,
2013-05-29 17:21:00,81.8,63.5,30.16,North,360,13.0,15.0,54,0.00,,---,0.00,VWS V14.01,2013-05-29 21:21:00,
2013-05-29 17:26:00,82.0,64.3,30.16,North,360,11.0,15.0,55,0.00,,---,0.00,VWS V14.01,2013-05-29 21:26:00,
2013-05-29 17:31:00,81.8,63.5,30.16,North,360,7.0,15.0,54,0.00,,---,0.00,VWS V14.01,2013-05-29 21:31:00,
2013-05-29 17:37:00,81.7,64.0,30.16,North,360,11.0,15.0,55,0.00,,---,0.00,VWS V14.01,2013-05-29 21:37:00,
2013-05-29 17:42:00,81.9,64.2,30.16,North,360,14.0,15.0,55,0.00,,---,0.00,VWS V14.01,2013-05-29 21:42:00,
2013-05-29 17:47:00,81.7,64.0,30.15,North,360,9.0,17.0,55,0.00,,---,0.00,VWS V14.01,2013-05-29 21:47:00,
2013-05-29 17:52:00,81.7,64.0,30.15,North,360,7.0,17.0,55,0.00,,---,0.00,VWS V14.01,2013-05-29 21:52:00,
2013-05-29 17:57:00,81.6,63.9,30.15,North,360,9.0,17.0,55,0.00,,---,0.00,VWS V14.01,2013-05-29 21:57:00,
2013-05-29 18:02:00,81.4,63.7,30.15,North,360,11.0,17.0,55,0.00,,---,0.00,VWS V14.01,2013-05-29 22:02:00,
2013-05-29 18:07:00,81.3,64.1,30.15,North,360,5.0,16.0,56,0.00,,---,0.00,VWS V14.01,2013-05-29 22:07:00,
2013-05-29 18:12:00,81.5,63.3,30.15,North,360,7.0,16.0,54,0.00,,---,0.00,VWS V14.01,2013-05-29 22:12:00,
2013-05-29 18:17:00,81.4,63.7,30.15,North,360,11.0,17.0,55,0.00,,---,0.00,VWS V14.01,2013-05-29 22:17:00,
2013-05-29 18:22:00,81.3,64.1,30.15,North,360,10.0,17.0,56,0.00,,---,0.00,VWS V14.01,2013-05-29 22:22:00,
2013-05-29 18:27:00,81.0,63.8,30.15,North,360,10.0,17.0,56,0.00,,---,0.00,VWS V14.01,2013-05-29 22:27:00,
2013-05-29 18:32:00,80.9,64.2,30.15,North,360,11.0,17.0,57,0.00,,---,0.00,VWS V14.01,2013-05-29 22:32:00,
2013-05-29 18:37:00,81.1,64.4,30.14,North,360,6.0,17.0,57,0.00,,---,0.00,VWS V14.01,2013-05-29 22:37:00,
2013-05-29 18:42:00,81.0,64.3,30.14,North,360,9.0,17.0,57,0.00,,---,0.00,VWS V14.01,2013-05-29 22:42:00,
2013-05-29 18:47:00,80.8,64.7,30.14,North,360,14.0,17.0,58,0.00,,---,0.00,VWS V14.01,2013-05-29 22:47:00,
2013-05-29 18:53:00,80.5,64.9,30.14,North,360,9.0,17.0,59,0.00,,---,0.00,VWS V14.01,2013-05-29 22:53:00,
2013-05-29 18:58:00,80.5,64.4,30.14,North,360,13.0,17.0,58,0.00,,---,0.00,VWS V14.01,2013-05-29 22:58:00,
2013-05-29 19:03:00,80.2,64.6,30.14,North,360,6.0,11.0,59,0.00,,---,0.00,VWS V14.01,2013-05-29 23:03:00,
2013-05-29 19:08:00,80.2,65.1,30.14,North,360,6.0,11.0,60,0.00,,---,0.00,VWS V14.01,2013-05-29 23:08:00,
2013-05-29 19:13:00,80.3,65.2,30.14,North,360,10.0,12.0,60,0.00,,---,0.00,VWS V14.01,2013-05-29 23:13:00,
2013-05-29 19:18:00,80.1,65.0,30.14,North,360,9.0,15.0,60,0.00,,---,0.00,VWS V14.01,2013-05-29 23:18:00,
2013-05-29 19:23:00,79.8,64.2,30.14,North,360,10.0,15.0,59,0.00,,---,0.00,VWS V14.01,2013-05-29 23:23:00,
2013-05-29 19:28:00,79.8,64.7,30.14,North,360,5.0,15.0,60,0.00,,---,0.00,VWS V14.01,2013-05-29 23:28:00,
2013-05-29 19:33:00,79.7,64.6,30.14,North,360,9.0,15.0,60,0.00,,---,0.00,VWS V14.01,2013-05-29 23:33:00,
2013-05-29 19:38:00,79.5,64.9,30.15,North,360,5.0,15.0,61,0.00,,---,0.00,VWS V14.01,2013-05-29 23:38:00,
2013-05-29 19:43:00,79.4,64.3,30.15,North,360,10.0,15.0,60,0.00,,---,0.00,VWS V14.01,2013-05-29 23:43:00,
2013-05-29 19:48:00,79.2,64.6,30.15,North,360,7.0,15.0,61,0.00,,---,0.00,VWS V14.01,2013-05-29 23:48:00,
2013-05-29 19:53:00,79.1,64.5,30.15,North,360,7.0,15.0,61,0.00,,---,0.00,VWS V14.01,2013-05-29 23:53:00,
2013-05-29 19:58:00,79.0,64.9,30.15,North,360,4.0,15.0,62,0.00,,---,0.00,VWS V14.01,2013-05-29 23:58:00,
2013-05-29 20:03:00,78.8,64.7,30.15,North,360,3.0,4.0,62,0.00,,---,0.00,VWS V14.01,2013-05-30 00:03:00,
2013-05-29 20:09:00,78.6,64.5,30.15,North,360,4.0,6.0,62,0.00,,---,0.00,VWS V14.01,2013-05-30 00:09:00,
2013-05-29 20:14:00,78.4,64.8,30.15,North,360,5.0,6.0,63,0.00,,---,0.00,VWS V14.01,2013-05-30 00:14:00,
2013-05-29 20:19:00,78.1,64.5,30.15,North,360,3.0,6.0,63,0.00,,---,0.00,VWS V14.01,2013-05-30 00:19:00,
2013-05-29 20:24:00,77.8,64.7,30.15,North,360,1.0,6.0,64,0.00,,---,0.00,VWS V14.01,2013-05-30 00:24:00,
2013-05-29 20:29:00,77.5,64.8,30.15,North,360,1.0,6.0,65,0.00,,---,0.00,VWS V14.01,2013-05-30 00:29:00,
2013-05-29 20:34:00,77.2,64.5,30.16,North,360,2.0,6.0,65,0.00,,---,0.00,VWS V14.01,2013-05-30 00:34:00,
2013-05-29 20:39:00,76.9,64.7,30.15,North,360,4.0,6.0,66,0.00,,---,0.00,VWS V14.01,2013-05-30 00:39:00,
2013-05-29 20:44:00,76.6,64.8,30.15,North,360,1.0,6.0,67,0.00,,---,0.00,VWS V14.01,2013-05-30 00:44:00,
2013-05-29 20:49:00,76.3,64.6,30.15,North,360,1.0,6.0,67,0.00,,---,0.00,VWS V14.01,2013-05-30 00:49:00,
2013-05-29 20:54:00,76.0,64.7,30.16,North,360,2.0,6.0,68,0.00,,---,0.00,VWS V14.01,2013-05-30 00:54:00,
2013-05-29 20:59:00,75.7,64.4,30.16,North,360,4.0,6.0,68,0.00,,---,0.00,VWS V14.01,2013-05-30 00:59:00,
2013-05-29 21:04:00,75.5,64.6,30.15,North,360,5.0,7.0,69,0.00,,---,0.00,VWS V14.01,2013-05-30 01:04:00,
2013-05-29 21:09:00,75.3,64.8,30.16,North,360,4.0,7.0,70,0.00,,---,0.00,VWS V14.01,2013-05-30 01:09:00,
2013-05-29 21:14:00,75.1,64.7,30.16,North,360,3.0,7.0,70,0.00,,---,0.00,VWS V14.01,2013-05-30 01:14:00,
2013-05-29 21:19:00,75.0,64.6,30.16,North,360,4.0,7.0,70,0.00,,---,0.00,VWS V14.01,2013-05-30 01:19:00,
2013-05-29 21:24:00,74.8,64.8,30.16,North,360,3.0,7.0,71,0.00,,---,0.00,VWS V14.01,2013-05-30 01:24:00,
2013-05-29 21:29:00,74.5,64.9,30.16,North,360,2.0,7.0,72,0.00,,---,0.00,VWS V14.01,2013-05-30 01:29:00,
2013-05-29 21:35:00,74.4,64.8,30.16,North,360,5.0,7.0,72,0.00,,---,0.00,VWS V14.01,2013-05-30 01:35:00,
2013-05-29 21:40:00,74.1,64.5,30.16,North,360,6.0,7.0,72,0.00,,---,0.00,VWS V14.01,2013-05-30 01:40:00,
2013-05-29 21:45:00,73.8,64.6,30.17,North,360,6.0,7.0,73,0.00,,---,0.00,VWS V14.01,2013-05-30 01:45:00,
2013-05-29 21:50:00,73.6,64.8,30.17,North,360,6.0,7.0,74,0.00,,---,0.00,VWS V14.01,2013-05-30 01:50:00,
2013-05-29 21:55:00,73.4,64.6,30.17,North,360,4.0,7.0,74,0.00,,---,0.00,VWS V14.01,2013-05-30 01:55:00,
2013-05-29 22:00:00,73.2,64.8,30.17,North,360,5.0,7.0,75,0.00,,---,0.00,VWS V14.01,2013-05-30 02:00:00,
2013-05-29 22:05:00,73.1,64.7,30.17,North,360,3.0,5.0,75,0.00,,---,0.00,VWS V14.01,2013-05-30 02:05:00,
2013-05-29 22:10:00,73.0,64.6,30.17,North,360,3.0,5.0,75,0.00,,---,0.00,VWS V14.01,2013-05-30 02:10:00,
2013-05-29 22:15:00,73.0,64.6,30.17,North,360,4.0,6.0,75,0.00,,---,0.00,VWS V14.01,2013-05-30 02:15:00,
2013-05-29 22:20:00,72.7,64.7,30.17,North,360,4.0,6.0,76,0.00,,---,0.00,VWS V14.01,2013-05-30 02:20:00,
2013-05-29 22:25:00,72.4,64.8,30.17,North,360,4.0,6.0,77,0.00,,---,0.00,VWS V14.01,2013-05-30 02:25:00,
2013-05-29 22:30:00,72.2,64.6,30.17,North,360,5.0,7.0,77,0.00,,---,0.00,VWS V14.01,2013-05-30 02:30:00,
2013-05-29 22:35:00,72.1,64.9,30.17,North,360,5.0,7.0,78,0.00,,---,0.00,VWS V14.01,2013-05-30 02:35:00,
2013-05-29 22:40:00,72.0,64.8,30.18,North,360,3.0,7.0,78,0.00,,---,0.00,VWS V14.01,2013-05-30 02:40:00,
2013-05-29 22:45:00,71.9,64.7,30.18,North,360,5.0,7.0,78,0.00,,---,0.00,VWS V14.01,2013-05-30 02:45:00,
2013-05-29 22:51:00,71.9,64.7,30.18,North,360,4.0,7.0,78,0.00,,---,0.00,VWS V14.01,2013-05-30 02:51:00,
2013-05-29 22:56:00,71.8,64.6,30.18,North,360,4.0,7.0,78,0.00,,---,0.00,VWS V14.01,2013-05-30 02:56:00,
2013-05-29 23:01:00,71.7,64.5,30.18,North,360,5.0,7.0,78,0.00,,---,0.00,VWS V14.01,2013-05-30 03:01:00,
2013-05-29 23:06:00,71.7,64.8,30.18,North,360,5.0,6.0,79,0.00,,---,0.00,VWS V14.01,2013-05-30 03:06:00,
2013-05-29 23:11:00,71.6,64.8,30.18,North,360,4.0,6.0,79,0.00,,---,0.00,VWS V14.01,2013-05-30 03:11:00,
2013-05-29 23:16:00,71.6,64.8,30.19,North,360,2.0,6.0,79,0.00,,---,0.00,VWS V14.01,2013-05-30 03:16:00,
2013-05-29 23:21:00,71.5,64.7,30.18,North,360,1.0,6.0,79,0.00,,---,0.00,VWS V14.01,2013-05-30 03:21:00,
2013-05-29 23:26:00,71.3,64.5,30.19,North,360,3.0,6.0,79,0.00,,---,0.00,VWS V14.01,2013-05-30 03:26:00,
2013-05-29 23:31:00,71.3,64.8,30.19,North,360,3.0,6.0,80,0.00,,---,0.00,VWS V14.01,2013-05-30 03:31:00,
2013-05-29 23:36:00,71.2,64.7,30.19,North,360,4.0,6.0,80,0.00,,---,0.00,VWS V14.01,2013-05-30 03:36:00,
2013-05-29 23:41:00,71.1,64.6,30.19,North,360,5.0,6.0,80,0.00,,---,0.00,VWS V14.01,2013-05-30 03:41:00,
2013-05-29 23:47:00,70.8,64.3,30.19,North,360,4.0,7.0,80,0.00,,---,0.00,VWS V14.01,2013-05-30 03:47:00,
2013-05-29 23:52:00,70.7,64.6,30.19,North,360,3.0,7.0,81,0.00,,---,0.00,VWS V14.01,2013-05-30 03:52:00,
2013-05-29 23:57:00,70.5,64.4,30.19,North,360,4.0,7.0,81,0.00,,---,0.00,VWS V14.01,2013-05-30 03:57:00,